Stations météo

Publicité
Colmar, France (7197): Température de l'air & dewpoint: 13.09.2018 17:00:00 - 19.09.2018 17:00:00 (CEST)Colmar, France (7197): Température de l'air 5cm: 13.09.2018 17:00:00 - 19.09.2018 17:00:00 (CEST)Colmar, France (7197): Température de l'air -20cm & Température de l'air -100cm: 13.09.2018 17:00:00 - 19.09.2018 17:00:00 (CEST)Colmar, France (7197): Vitesse du vent & gusts: 13.09.2018 17:00:00 - 19.09.2018 17:00:00 (CEST)Colmar, France (7197): Direction du vent: 13.09.2018 17:00:00 - 19.09.2018 17:00:00 (CEST)Colmar, France (7197): reduced air pressure: 13.09.2018 17:00:00 - 19.09.2018 17:00:00 (CEST)Colmar, France (7197): visibility: 13.09.2018 17:00:00 - 19.09.2018 17:00:00 (CEST)Colmar, France (7197): Ensoleillement: 13.09.2018 17:00:00 - 19.09.2018 17:00:00 (CEST)Colmar, France (7197): Quantités de précipitations: 13.09.2018 17:00:00 - 19.09.2018 17:00:00 (CEST)
Date & Time tt [°C] td [°C] tt 5cm [°C] tt -20cm [°C] tt -100cm [°C] ff [km/h] ff [knt] fx [km/h] fx [knt] dd ppp [hPa] vv [km] sd [min] rr [mm]
19.09.2018 17:00:00 - - - - - - - - - - - - - -
19.09.2018 16:00:00 30,6 12,0 31,3 23,6 21,3 11 6 21 12 S 1018,1 20 57 0,0
19.09.2018 15:00:00 29,2 12,2 30,7 22,8 21,3 10 5 21 11 SSW 1018,7 20 27 0,0
19.09.2018 14:00:00 30,2 13,0 34,0 22,0 21,3 10 5 20 11 SW 1018,9 20 60 0,0
19.09.2018 13:00:00 28,5 14,0 32,0 21,3 21,3 10 6 20 11 WSW 1019,4 20 60 0,0
19.09.2018 12:00:00 26,7 14,8 26,8 20,8 21,3 8 4 20 11 SW 1020,0 20 46 0,0
19.09.2018 11:00:00 24,4 14,5 23,9 20,5 21,3 8 5 16 8 S 1020,4 20 57 0,0
19.09.2018 10:00:00 20,4 15,0 18,1 20,5 21,3 5 3 15 8 S 1020,6 20 60 0,0
19.09.2018 09:00:00 17,0 13,9 13,5 20,7 21,3 5 3 10 6 S 1020,8 20 57 0,0
19.09.2018 08:00:00 13,2 12,7 9,9 21,0 21,3 6 3 8 4 S 1020,8 20 25 0,0
19.09.2018 07:00:00 12,5 11,9 9,8 21,3 21,3 7 4 9 5 SSE 1020,2 20 0 0,0
19.09.2018 06:00:00 13,0 11,4 10,7 21,6 21,3 2 1 10 5 SE 1019,8 20 0 0,0
19.09.2018 05:00:00 13,6 12,0 11,6 22,0 21,3 5 3 8 4 SE 1019,6 20 0 0,0
19.09.2018 04:00:00 15,3 12,6 11,1 22,3 21,3 4 2 13 7 S 1019,4 20 0 0,0
19.09.2018 03:00:00 13,5 12,4 11,1 22,7 21,3 5 3 8 4 SSW 1019,5 20 0 0,0
19.09.2018 02:00:00 14,2 12,9 11,8 23,1 21,3 6 3 9 5 SSW 1019,4 20 0 0,0
19.09.2018 01:00:00 14,6 12,6 12,2 23,5 21,3 6 3 9 5 SW 1019,4 20 0 0,0
19.09.2018 00:00:00 15,3 13,3 13,2 23,9 21,3 6 3 9 5 S 1019,1 20 0 0,0
18.09.2018 23:00:00 15,9 13,2 14,7 24,3 21,3 5 3 12 7 W 1019,0 20 0 0,0
18.09.2018 22:00:00 16,7 13,4 15,0 24,7 21,3 5 3 13 7 SW 1018,7 20 0 0,0
18.09.2018 21:00:00 18,4 14,5 17,1 25,0 21,3 8 4 16 9 SW 1017,7 20 0 0,0
18.09.2018 20:00:00 19,1 15,4 17,6 25,2 21,3 9 5 15 8 S 1016,8 20 0 0,4
18.09.2018 19:00:00 20,7 14,6 20,6 25,3 21,3 10 5 23 13 NNW 1016,6 20 0 0,0
18.09.2018 18:00:00 20,7 13,6 20,8 25,1 21,3 14 7 54 29 NW 1016,2 20 1 0,0
18.09.2018 17:00:00 23,1 13,3 23,9 24,6 21,3 23 12 45 25 NW 1016,1 20 10 0,0
18.09.2018 16:00:00 31,1 13,8 34,6 23,9 21,3 18 10 31 17 SSW 1014,4 20 60 0,0
18.09.2018 15:00:00 30,7 13,5 33,9 23,0 21,3 13 7 28 15 SSW 1014,8 20 58 0,0
18.09.2018 14:00:00 30,1 13,8 34,5 22,2 21,3 13 7 29 16 SSW 1015,4 19 60 0,0
18.09.2018 13:00:00 30,1 14,2 30,0 21,4 21,3 15 8 29 16 SSW 1015,8 20 48 0,0
18.09.2018 12:00:00 28,0 14,3 26,3 20,9 21,3 16 9 34 18 SW 1016,5 18 38 0,0
18.09.2018 11:00:00 25,9 14,0 25,6 20,6 21,3 18 10 34 18 S 1016,6 20 53 0,0
18.09.2018 10:00:00 23,8 13,9 20,7 20,6 21,3 16 9 35 19 S 1016,6 20 55 0,0
18.09.2018 09:00:00 19,8 13,7 14,9 20,7 21,3 11 6 21 12 S 1016,8 19 60 0,0
18.09.2018 08:00:00 14,7 12,6 10,9 21,0 21,3 10 5 16 9 SSW 1017,4 20 26 0,0
18.09.2018 07:00:00 13,5 11,7 9,8 21,4 21,3 9 5 13 7 SSW 1017,2 20 0 0,0
18.09.2018 06:00:00 13,2 10,7 11,9 21,7 21,3 6 4 13 7 SW 1017,2 20 0 0,0
18.09.2018 05:00:00 14,4 11,5 12,9 22,0 21,3 7 4 13 7 SSW 1016,8 20 0 0,0
18.09.2018 04:00:00 14,7 11,8 10,3 22,4 21,3 8 4 14 8 SSW 1016,9 20 0 0,0
18.09.2018 03:00:00 12,4 10,3 10,2 22,7 21,3 3 2 7 4 SSW 1017,1 20 0 0,0
18.09.2018 02:00:00 13,1 10,5 11,0 23,2 21,3 4 2 7 4 S 1017,3 20 0 0,0
18.09.2018 01:00:00 13,5 10,3 11,3 23,6 21,3 0 0 5 3 N 1017,1 20 0 0,0
18.09.2018 00:00:00 13,8 10,2 11,1 24,0 21,3 4 2 6 3 SSW 1017,2 20 0 0,0
17.09.2018 23:00:00 15,0 10,0 12,4 24,3 21,3 0 0 10 5 N 1017,2 20 0 0,0
17.09.2018 22:00:00 16,6 9,5 13,7 24,7 21,3 0 0 7 4 N 1017,0 20 0 0,0
17.09.2018 21:00:00 19,3 9,2 16,3 24,9 21,3 4 2 11 6 NW 1016,6 20 0 0,0
17.09.2018 20:00:00 23,2 9,6 19,9 24,9 21,3 6 3 9 5 ESE 1016,0 20 16 0,0
17.09.2018 19:00:00 28,3 8,6 29,4 24,7 21,3 5 3 12 7 ESE 1015,6 20 60 0,0
17.09.2018 18:00:00 29,8 9,3 32,4 24,3 21,3 8 4 13 7 SW 1015,6 20 60 0,0
17.09.2018 17:00:00 29,9 9,4 33,7 23,6 21,4 5 3 16 9 SW 1016,0 20 60 0,0
17.09.2018 16:00:00 30,2 10,2 35,2 22,8 21,4 5 3 19 11 NW 1016,8 20 60 0,0
17.09.2018 15:00:00 29,3 8,9 33,8 21,8 21,3 10 5 21 11 S 1017,6 20 60 0,0
17.09.2018 14:00:00 28,4 11,0 33,0 20,9 21,4 4 2 18 10 S 1018,2 20 60 0,0
17.09.2018 13:00:00 27,4 11,4 30,8 20,1 21,4 10 5 18 10 SSW 1019,0 19 60 0,0
17.09.2018 12:00:00 25,6 12,1 26,4 19,5 21,4 9 5 17 9 SSW 1019,7 18 60 0,0
17.09.2018 11:00:00 22,5 13,3 21,3 19,2 21,4 10 5 15 8 SSW 1020,4 20 60 0,0
17.09.2018 10:00:00 18,6 13,0 16,3 19,1 21,4 7 4 13 7 S 1021,3 20 60 0,0
17.09.2018 09:00:00 14,8 11,0 11,6 19,3 21,4 4 2 10 6 SSW 1021,8 20 60 0,0
17.09.2018 08:00:00 10,8 10,6 5,5 19,7 21,4 7 4 10 5 SSW 1022,2 20 28 0,0
17.09.2018 07:00:00 8,0 7,2 5,7 20,1 21,4 0 0 4 2 N 1022,4 17 0 0,0
17.09.2018 06:00:00 8,7 7,8 6,0 20,4 21,4 2 1 4 2 ESE 1022,3 20 0 0,0
17.09.2018 05:00:00 9,9 8,7 7,0 20,8 21,4 4 2 8 4 S 1021,8 20 0 0,0
17.09.2018 04:00:00 11,0 9,1 7,5 21,2 21,4 6 3 10 6 WSW 1021,6 20 0 0,0
17.09.2018 03:00:00 11,5 9,2 8,8 21,6 21,4 3 2 10 5 SE 1021,4 20 0 0,0
17.09.2018 02:00:00 11,5 8,7 8,9 22,0 21,5 4 2 11 6 WSW 1021,9 20 0 0,0
17.09.2018 01:00:00 11,9 9,8 8,8 22,4 21,4 5 3 8 4 SSW 1021,8 20 0 0,0
17.09.2018 00:00:00 12,7 10,4 9,8 22,8 21,5 2 1 5 3 SSE 1021,6 20 0 0,0
16.09.2018 23:00:00 14,0 11,0 11,1 23,1 21,5 3 1 5 3 SSW 1021,4 20 0 0,0
16.09.2018 22:00:00 16,4 11,5 13,3 23,4 21,5 5 3 11 6 W 1021,3 20 0 0,0
16.09.2018 21:00:00 17,5 11,7 14,1 23,6 21,5 3 2 9 5 NW 1020,7 20 0 0,0
16.09.2018 20:00:00 20,9 12,1 18,3 23,7 21,5 5 3 13 7 NNW 1019,8 20 18 0,0
16.09.2018 19:00:00 26,1 9,9 26,6 23,5 21,5 8 5 21 11 SW 1018,8 20 60 0,0
16.09.2018 18:00:00 27,1 9,0 28,6 23,1 21,5 13 7 23 13 SW 1018,5 20 60 0,0
16.09.2018 17:00:00 27,8 9,6 29,3 22,5 21,5 9 5 21 11 SSW 1018,5 20 52 0,0
16.09.2018 16:00:00 26,9 9,3 30,5 21,7 21,5 8 4 16 9 SSE 1019,0 17 60 0,0
16.09.2018 15:00:00 25,9 10,9 30,0 20,9 21,5 6 3 14 8 S 1019,8 20 60 0,0
16.09.2018 14:00:00 24,2 11,2 29,0 20,0 21,5 7 4 15 8 W 1020,6 20 60 0,0
16.09.2018 13:00:00 22,8 10,2 26,8 19,3 21,5 6 4 13 7 SW 1021,4 20 60 0,0
16.09.2018 12:00:00 20,9 8,8 23,4 18,7 21,5 5 3 11 6 N 1022,1 20 60 0,0
16.09.2018 11:00:00 18,4 8,9 19,6 18,4 21,5 4 2 11 6 NE 1023,1 20 60 0,0
16.09.2018 10:00:00 15,7 10,0 13,7 18,4 21,5 6 3 13 7 NNE 1023,5 20 60 0,0
16.09.2018 09:00:00 12,3 9,7 8,8 18,7 21,5 7 4 12 6 N 1023,8 20 60 0,0
16.09.2018 08:00:00 7,9 7,8 3,7 19,0 21,6 5 3 7 4 N 1024,1 20 29 0,0
16.09.2018 07:00:00 6,0 5,6 3,6 19,4 21,6 0 0 5 3 N 1023,9 15 0 0,0
16.09.2018 06:00:00 6,4 5,8 4,1 19,8 21,6 5 3 7 4 ENE 1023,7 20 0 0,0
16.09.2018 05:00:00 6,7 6,1 4,4 20,3 21,6 0 0 3 2 N 1024,0 8 0 0,0
16.09.2018 04:00:00 7,3 6,6 4,7 20,7 21,6 0 0 3 2 N 1024,4 8 0 0,0
16.09.2018 03:00:00 8,1 7,2 5,6 21,1 21,6 2 1 4 2 SE 1024,7 20 0 0,0
16.09.2018 02:00:00 8,8 7,6 6,1 21,6 21,6 0 0 4 2 N 1024,9 20 0 0,0
16.09.2018 01:00:00 9,9 8,3 7,0 22,0 21,6 2 1 7 4 NE 1025,2 20 0 0,0
16.09.2018 00:00:00 12,0 8,5 8,1 22,4 21,6 4 2 9 5 N 1025,2 20 0 0,0
15.09.2018 23:00:00 12,3 8,4 8,7 22,9 21,6 4 2 8 5 NNE 1025,2 20 0 0,0
15.09.2018 22:00:00 13,5 9,2 10,7 23,2 21,6 5 3 11 6 N 1025,1 20 0 0,0
15.09.2018 21:00:00 15,7 9,1 14,3 23,5 21,6 5 3 11 6 N 1024,8 20 0 0,0
15.09.2018 20:00:00 18,2 8,7 17,2 23,7 21,6 6 3 19 11 NNE 1024,2 20 20 0,0
15.09.2018 19:00:00 20,6 8,2 21,6 23,7 21,6 13 7 24 13 NE 1023,5 20 60 0,0
15.09.2018 18:00:00 22,1 8,6 24,7 23,5 21,6 11 6 26 14 NNE 1023,2 20 60 0,0
15.09.2018 17:00:00 22,9 8,9 26,5 23,1 21,6 11 6 26 14 NE 1022,8 20 58 0,0
15.09.2018 16:00:00 22,7 8,4 27,8 22,4 21,6 10 5 29 16 ENE 1023,1 20 60 0,0
15.09.2018 15:00:00 22,6 8,3 26,2 21,8 21,6 11 6 28 15 NE 1023,5 20 57 0,0
15.09.2018 14:00:00 22,5 8,2 27,0 21,1 21,6 8 4 24 13 ENE 1023,9 20 57 0,0
15.09.2018 13:00:00 22,2 9,0 22,9 20,5 21,7 6 3 21 11 E 1024,2 20 56 0,0
15.09.2018 12:00:00 21,2 10,7 24,7 20,0 21,6 4 2 18 10 ENE 1024,6 20 60 0,0
15.09.2018 11:00:00 19,6 10,6 18,9 19,7 21,7 6 4 12 7 ENE 1024,8 20 60 0,0
15.09.2018 10:00:00 17,7 13,6 15,4 19,7 21,7 5 3 8 4 E 1024,9 20 60 0,0
15.09.2018 09:00:00 15,0 13,5 11,8 19,9 21,7 0 0 4 2 N 1024,8 20 60 0,0
15.09.2018 08:00:00 11,6 11,4 7,9 20,2 21,6 3 2 8 4 SW 1024,7 11 30 0,0
15.09.2018 07:00:00 10,9 10,6 8,1 20,5 21,7 2 1 6 3 SSW 1024,3 0,3 0 0,2
15.09.2018 06:00:00 12,4 12,1 10,2 20,8 21,7 0 0 5 3 N 1023,8 1,8 0 0,0
15.09.2018 05:00:00 12,5 12,2 11,1 21,2 21,7 0 0 6 3 N 1023,3 6 0 0,0
15.09.2018 04:00:00 12,8 12,5 10,8 21,5 21,7 2 1 6 3 S 1023,0 5 0 0,0
15.09.2018 03:00:00 13,2 12,9 10,9 21,9 21,7 3 2 8 4 SE 1022,9 1,9 0 0,0
15.09.2018 02:00:00 13,8 13,5 11,8 22,2 21,7 2 1 5 3 S 1022,5 0,4 0 0,0
15.09.2018 01:00:00 14,9 14,4 12,7 22,5 21,7 4 2 5 3 SW 1022,2 1,1 0 0,0
15.09.2018 00:00:00 15,7 15,4 13,7 22,8 21,7 2 1 7 4 NW 1021,7 3,4 0 0,0
14.09.2018 23:00:00 15,6 14,6 13,6 23,1 21,7 3 2 5 3 NW 1021,3 0,2 0 0,0
14.09.2018 22:00:00 17,5 16,5 16,9 23,4 21,7 0 0 6 3 N 1020,9 6 0 0,0
14.09.2018 21:00:00 18,0 16,3 17,2 23,6 21,7 0 0 8 4 N 1020,7 5 0 0,8
14.09.2018 20:00:00 18,7 15,0 17,9 23,8 21,7 3 2 10 5 NE 1019,9 20 0 0,0
14.09.2018 19:00:00 20,0 14,8 19,9 23,8 21,7 8 4 16 9 N 1019,3 20 1 0,0
14.09.2018 18:00:00 21,3 14,7 22,1 23,6 21,7 9 5 22 12 N 1019,1 20 17 0,0
14.09.2018 17:00:00 21,9 15,0 23,5 23,3 21,7 12 6 27 14 N 1018,9 20 25 0,0
14.09.2018 16:00:00 22,7 15,0 24,6 22,8 21,7 10 5 19 10 N 1018,8 20 28 0,0
14.09.2018 15:00:00 23,1 14,6 26,0 22,3 21,7 9 5 19 11 N 1019,3 20 34 0,0
14.09.2018 14:00:00 22,9 14,7 24,5 21,8 21,7 5 3 14 7 N 1019,6 20 29 0,0
14.09.2018 13:00:00 20,9 15,4 22,3 21,5 21,7 4 2 13 7 ENE 1020,1 20 11 0,0
14.09.2018 12:00:00 19,6 15,9 20,4 21,3 21,7 4 2 9 5 E 1020,7 19 5 0,0
14.09.2018 11:00:00 18,3 15,7 18,3 21,3 21,7 4 2 10 6 NE 1020,9 14 0 0,0
14.09.2018 10:00:00 17,1 15,6 17,4 21,4 21,7 5 3 10 5 NNE 1020,5 9 0 0,0
14.09.2018 09:00:00 16,6 15,5 16,5 21,5 21,7 5 3 10 5 NNE 1020,1 10 0 0,0
14.09.2018 08:00:00 16,0 15,4 15,8 21,6 21,7 6 3 11 6 NNE 1019,8 7 3 0,0
14.09.2018 07:00:00 15,9 15,4 15,9 21,8 21,7 4 2 7 4 N 1019,5 4,7 0 0,0
14.09.2018 06:00:00 16,1 15,6 16,0 22,0 21,6 4 2 8 5 N 1019,3 4,9 0 0,0
14.09.2018 05:00:00 16,1 15,6 16,0 22,2 21,6 4 2 9 5 N 1019,4 6 0 0,0
14.09.2018 04:00:00 16,2 15,9 16,0 22,5 21,6 3 2 10 6 NNE 1019,7 3,2 0 0,0
14.09.2018 03:00:00 16,1 15,8 15,7 22,8 21,6 6 4 10 5 NE 1019,6 3,6 0 0,0
14.09.2018 02:00:00 15,9 15,6 15,3 23,1 21,6 3 2 8 4 N 1019,9 2,8 0 0,0
14.09.2018 01:00:00 15,6 15,1 15,1 23,4 21,6 5 3 7 4 NW 1019,9 2,0 0 0,0
14.09.2018 00:00:00 16,2 15,7 15,9 23,8 21,6 2 1 6 4 E 1019,6 3,8 0 0,0
13.09.2018 23:00:00 16,5 16,0 16,3 24,1 21,6 4 2 5 3 S 1019,6 3,8 0 0,0
13.09.2018 22:00:00 16,7 15,9 16,1 24,5 21,6 2 1 13 7 NW 1019,6 8 0 0,0
13.09.2018 21:00:00 16,4 15,4 16,1 24,9 21,6 9 5 13 7 NW 1019,4 14 0 0,0
13.09.2018 20:00:00 16,9 16,1 16,4 25,2 21,6 5 3 21 12 N 1019,3 14 0 0,8
13.09.2018 19:00:00 17,3 16,3 16,9 25,5 21,6 10 5 32 18 NE 1018,8 10 0 2,2
13.09.2018 18:00:00 19,7 15,1 20,1 25,6 21,6 16 9 39 21 NE 1018,7 20 3 0,0
13.09.2018 17:00:00 21,2 16,6 21,1 25,5 21,6 20 11 36 19 N 1017,3 20 0 0,0

tt = Température de l'air
td = dewpoint
tt 5cm = Température de l'air 5cm
tt -20cm = Température de l'air -20cm
tt -100cm = Température de l'air -100cm
ff = Vitesse du vent
fx = gusts
dd = Direction du vent
ppp = reduced air pressure
vv = visibility
sd = Ensoleillement
rr = Quantités de précipitations

stations d'obs. à proximité